Portada
METAR-TAF:

METAR-TAF

Aeroports :

Oakey, Austràlia

latitud: 27-24-41S, longitud: 151-44-07E, altitud: 407 m

Observació

L'informe es va fer fa 1 hora i 10 minuts, a les 19:00 UTC
Vent calma
Temperatura 10°C
Humitat 87%
Pressió 1016 hPa
Visibilitat 10 km o més

METAR: YBOK 131900Z AUTO 00000KT 9999 // NCD 10/08 Q1016

Hora: 06:10 (20:10 UTC)


TAF: manca

Observacions i pronòstics meteorològics de més de 4000 aeroports (METAR i TAF).

Les estacions disponibles són els punts grocs i vermells al mapa.

Posi el ratolí al punt desitjat per veure el nom de l'estació.

Feu clic per veure les observacions i els pronòstics meteorològics.

Per canviar el mapa: feu clic els botons verds amb una creu de color negre per apropar; al botó verd amb un guió per allunyar la imatge; o en les fletxes verdes per a mapes adjacents.


METAR-TAF: